#timestamp,LO_Frequency,Hit,StdDev 
1550361615.8,286047008.3,Y
1550361635.7,286047005.3,P
1550361655.5,286047004.8,N
1550361675.3,286047007.2,P
1550361695.2,286047007.2,Y
1550361715.0,286047001.3,P
1550361715.9,286047001.3,N
1550361735.8,286047002.2,N
1550361755.6,286047000.0,N
1550361775.4,286047001.1,N
1550361795.3,286047000.2,N
1550361815.1,286047001.6,N
1550361835.9,286047005.5,Y
1550361855.7,286047001.9,P
1550361875.5,286047002.6,P
1550361895.4,286047005.7,P
1550361915.2,286047002.9,N
1550361935.0,286047003.0,N
1550361935.9,286047003.0,N
1550361955.8,286047007.2,Y
1550361975.6,286047005.0,P
1550361995.5,286047008.8,P
1550362015.3,286047007.4,P
1550362035.1,286047005.8,N
1550362055.9,286047005.6,N
1550362075.7,286047004.1,N
1550362095.5,286047003.2,N
1550362115.4,286047003.0,N
1550362135.2,286047003.8,N
1550362155.1,286047005.2,N
1550362156.0,286047005.2,N
1550362175.8,286047004.8,N
1550362195.6,286047004.7,N
1550362215.5,286047003.0,N
1550362235.3,286047003.5,N
1550362255.2,286047004.2,N
1550362275.9,286047004.3,N
1550362295.7,286047003.8,N
1550362315.6,286047003.8,N
1550362335.4,286047004.7,Y
1550362355.2,286047000.6,P
1550362375.1,286047002.7,N
1550362376.0,286047002.7,N
1550362395.8,286047000.6,N
1550362415.7,286047000.1,N
1550362435.5,286047000.4,N
1550362455.3,286047002.5,N
1550362475.2,286047000.1,N
1550362495.9,286047000.1,N
1550362515.7,286047000.4,N
1550362535.6,286046999.8,N
1550362555.4,286047001.5,N
1550362575.3,286047000.2,N
1550362595.1,286047001.8,N
1550362596.0,286047001.8,N
1550362615.8,286047004.0,Y
1550362635.7,286046996.6,P
1550362655.5,286046997.3,N
1550362675.3,286046997.2,N
1550362695.2,286046996.0,N
1550362715.0,286046995.5,N
1550362715.9,286046995.5,N
1550362735.8,286046997.1,N
1550362755.6,286046996.7,N
1550362775.4,286046996.6,N
1550362795.3,286046997.5,N
1550362815.1,286046996.1,N
1550362835.9,286046996.1,N
1550362855.7,286046994.5,Y
1550362875.5,286046999.1,P
1550362895.4,286046997.3,N
1550362915.2,286046995.4,P
1550362935.0,286046993.3,Y
1550362936.0,286046993.3,P
1550362955.8,286046998.8,N
1550362975.6,286046997.0,N
1550362995.5,286046998.9,N
1550363015.3,286046996.9,N
1550363035.1,286046998.7,N
1550363055.9,286046997.6,N
1550363075.7,286046997.8,N
1550363095.6,286046998.4,N
1550363115.4,286046999.1,N
1550363135.2,286047000.9,N
1550363155.1,286047000.0,N
1550363156.0,286047000.0,N
1550363175.8,286047000.9,N
1550363195.6,286047002.8,N
1550363215.5,286047000.2,N
1550363235.3,286047000.2,N
1550363255.2,286046998.5,N
1550363275.9,286046998.5,N
1550363295.7,286046997.8,N
1550363315.6,286046999.2,N
1550363335.4,286046997.1,N
1550363355.3,286046997.3,N
1550363375.1,286046996.8,N
1550363376.0,286046996.8,N
1550363395.8,286046996.8,N
1550363415.7,286046996.7,N
1550363435.5,286046999.2,N
1550363455.3,286046998.5,N
1550363475.2,286047011.9,Y
1550363495.0,286047001.5,P
1550363495.9,286047001.5,N
1550363515.8,286047002.7,N
1550363535.6,286047002.4,N
1550363555.4,286047001.4,N
1550363575.3,286047000.3,N
1550363595.1,286047001.1,N
1550363615.8,286047002.2,N
1550363635.7,286047001.3,N
1550363655.5,286046998.6,N
1550363675.4,286046999.3,N
1550363695.2,286046998.2,N
1550363715.0,286046998.2,N
1550363715.9,286046998.2,N
1550363735.8,286047000.0,N
1550363755.6,286046999.9,N
1550363775.4,286047000.4,N
1550363795.3,286047001.1,N
1550363815.1,286047000.2,N
1550363835.9,286047002.7,N
1550363855.7,286046999.3,N
1550363875.5,286046998.8,N
1550363895.4,286046999.0,N
1550363915.2,286046996.9,N
1550363935.0,286046997.6,N
1550363935.9,286046997.6,N
1550363955.8,286046995.0,Y
1550363975.6,286046996.7,P
1550363995.5,286046997.9,N
1550364015.3,286046998.0,N
1550364035.1,286046996.6,N
1550364055.9,286046996.8,N
1550364075.7,286046996.8,N
1550364095.5,286046999.0,N
1550364115.4,286046998.9,N
1550364135.2,286046999.1,N
1550364155.1,286046996.7,N
1550364156.0,286046996.7,N
1550364175.8,286046996.9,N
1550364195.6,286046997.6,N
1550364215.5,286046999.6,N
1550364235.3,286046999.3,N
1550364255.1,286046998.2,N
1550364275.9,286046996.5,Y
1550364295.7,286047000.8,P
1550364315.6,286047000.2,N
1550364335.4,286047000.2,N
1550364355.2,286047002.6,N
1550364375.1,286047002.3,N
1550364376.0,286047002.3,N
1550364395.8,286047002.5,N
1550364415.6,286047002.5,N
1550364435.5,286047003.7,N
1550364455.3,286046999.8,N
1550364475.2,286047002.7,N
1550364495.9,286047002.0,N
1550364515.7,286047003.2,N
1550364535.6,286047006.0,Y
1550364555.4,286047001.6,P
1550364575.2,286047002.5,P
1550364595.1,286047004.0,P
1550364596.0,286047004.0,Y
1550364615.8,286046999.9,P
1550364635.7,286047000.4,N
1550364655.5,286046998.9,N
1550364675.3,286047000.6,N
1550364695.2,286047007.2,Y
1550364715.0,286047006.0,P
1550364715.9,286047006.0,N
1550364735.8,286047001.3,N
1550364755.6,286047001.5,N
1550364775.4,286046998.1,N
1550364795.3,286046998.4,N
1550364815.1,286046998.8,N
1550364835.8,286046999.5,N
1550364855.7,286046999.4,N
1550364875.5,286046998.0,N
1550364895.4,286046999.1,N
1550364915.2,286046999.0,N
1550364935.0,286046996.5,N
1550364935.9,286046996.5,N
1550364955.8,286046997.1,N
1550364975.6,286046999.0,N
1550364995.4,286046997.9,N
1550365015.3,286046997.9,N
1550365035.1,286046997.2,N
1550365055.8,286046994.9,N
1550365075.7,286046996.9,N
1550365095.5,286046999.6,N
1550365115.4,286046998.6,N
1550365135.2,286046998.8,N
1550365155.0,286046999.6,N
1550365155.9,286046999.6,N
1550365175.8,286046998.6,N
1550365195.6,286046997.2,N
